Weather in Yarki

Russia / Novosibirsk Oblast     54°08′53″N   83°16′35″E
temp.,
°C
wind,
m/s
gust,
m/s
humid.,
%
clouds,
%
prec.,
mm/h
press.,
hPa
HPBL,
m
7 march, sun
sun701:00−4sw91693100 0.6 1013797
04:00−4sw81494100 0.8 1013750
07:00−4w41094100 1.6 1016532
10:00−7w4992100 0.5 1017351
13:00−7wsw4784100 0.5 1020366
16:00−6wsw478152 0.0 1021547
19:00−9sw338350 0.0 102336
22:00−11ssw3482100 0.0 102339
8 march, mon
mon801:00−11sse468393 0.0 102285
04:00−7sse51096100 0.1 1019282
07:00−6sse71296100 0.1 1017362
10:00−6s71390100 0.0 1014385
13:00−3s81386100 0.0 1012552
16:00−1ssw81581100 0.0 1010670
19:00−2ssw91784100 0.0 1009760
22:00−1sw81596100 0.4 1009942
9 march, tue
tue901:00−5wnw81390100 1.1 1014508
04:00−13w4119585 0.0 1020218
07:00−15sw5119592 0.0 1024236
10:00−14sw6129179 0.0 1026304
13:00−9sw7138390 0.0 1026562
16:00−7sw6118324 0.0 1025658
19:00−9ssw488922 0.0 1024151
22:00−12s599492 0.0 1024138
10 march, wed
wed1001:00−13s469793 0.0 1023100
04:00−14sse459564 0.0 102171
07:00−13sse479769 0.0 1020110
10:00−5s5109691 0.1 1017345
13:00−1s7129295 0.1 1014760
16:000s71195100 0.1 1012766
19:00−1sse61295100 0.1 1007407
22:00−1sse81787100 0.0 1004411
11 march, thu
thu1101:00+1ssw91981100 0.0 1000884
04:00+1sw101999100 1.5 1000957
07:00−5wsw11178997 1.8 1006799
10:00−8sw81590100 0.1 1012659
13:00−6sw91589100 0.1 1014937
16:00−5sw101681100 0.1 10161219
19:00−8sw7158482 0.1 1018723
22:00−10sw6158974 0.0 1021560